TimeEST,TemperatureF,Dew PointF,Humidity,Sea Level PressureIn,VisibilityMPH,Wind Direction,Wind SpeedMPH,Gust SpeedMPH,PrecipitationIn,Events,Conditions,WindDirDegrees,DateUTC
12:15 AM,26.6,21.2,80,30.17,10.0,Calm,Calm,-,N/A,,Scattered Clouds,0,2014-02-25 05:15:00
12:35 AM,26.6,19.4,74,30.17,10.0,Calm,Calm,-,N/A,,Scattered Clouds,0,2014-02-25 05:35:00
12:55 AM,28.4,17.6,64,30.17,10.0,Calm,Calm,-,N/A,,Overcast,0,2014-02-25 05:55:00
1:15 AM,28.4,17.6,64,30.16,10.0,Calm,Calm,-,N/A,,Mostly Cloudy,0,2014-02-25 06:15:00
1:35 AM,28.4,17.6,64,30.15,10.0,NNE,3.5,-,N/A,,Scattered Clouds,30,2014-02-25 06:35:00
1:55 AM,28.4,19.4,69,30.15,10.0,NNE,3.5,-,N/A,,Mostly Cloudy,30,2014-02-25 06:55:00
2:15 AM,28.4,17.6,64,30.15,10.0,NNE,3.5,-,N/A,,Overcast,20,2014-02-25 07:15:00
2:30 AM,28.4,19.4,69,30.13,10.0,NNE,4.6,-,N/A,,Overcast,30,2014-02-25 07:30:00
2:55 AM,28.4,19.4,69,30.13,10.0,NNE,4.6,-,N/A,,Overcast,30,2014-02-25 07:55:00
3:15 AM,28.4,19.4,69,30.13,10.0,Calm,Calm,-,N/A,,Overcast,0,2014-02-25 08:15:00
4:55 AM,28.4,21.2,74,30.14,10.0,NNE,5.8,-,N/A,,Overcast,20,2014-02-25 09:55:00
5:15 AM,28.4,21.2,74,30.15,10.0,North,6.9,-,N/A,,Overcast,10,2014-02-25 10:15:00
5:35 AM,28.4,21.2,74,30.15,10.0,North,4.6,-,N/A,,Overcast,360,2014-02-25 10:35:00
5:55 AM,28.4,19.4,69,30.15,10.0,North,4.6,-,N/A,,Overcast,10,2014-02-25 10:55:00
6:15 AM,28.4,19.4,69,30.15,10.0,North,3.5,-,N/A,,Overcast,10,2014-02-25 11:15:00
6:35 AM,28.4,19.4,69,30.15,10.0,NNE,5.8,-,N/A,,Overcast,20,2014-02-25 11:35:00
6:55 AM,28.4,19.4,69,30.16,10.0,North,5.8,-,N/A,,Overcast,10,2014-02-25 11:55:00
7:15 AM,28.4,19.4,69,30.17,10.0,North,6.9,-,N/A,,Overcast,10,2014-02-25 12:15:00
7:35 AM,28.4,19.4,69,30.18,10.0,NNE,9.2,-,N/A,,Overcast,20,2014-02-25 12:35:00
7:55 AM,28.4,19.4,69,30.18,10.0,North,8.1,-,N/A,,Overcast,10,2014-02-25 12:55:00
8:15 AM,28.4,19.4,69,30.19,10.0,NE,3.5,-,N/A,,Overcast,40,2014-02-25 13:15:00
8:35 AM,28.4,19.4,69,30.19,10.0,NE,4.6,-,N/A,,Overcast,40,2014-02-25 13:35:00
8:55 AM,28.4,19.4,69,30.20,10.0,Calm,Calm,-,N/A,,Overcast,0,2014-02-25 13:55:00
9:15 AM,28.4,19.4,69,30.20,10.0,Calm,Calm,-,N/A,,Overcast,0,2014-02-25 14:15:00
9:35 AM,28.4,19.4,69,30.19,10.0,Calm,Calm,-,N/A,,Overcast,0,2014-02-25 14:35:00
9:55 AM,28.4,19.4,69,30.20,10.0,Calm,Calm,-,N/A,,Overcast,0,2014-02-25 14:55:00
10:15 AM,28.4,19.4,69,30.20,10.0,Calm,Calm,-,N/A,,Overcast,0,2014-02-25 15:15:00
10:35 AM,28.4,19.4,69,30.20,10.0,Calm,Calm,-,N/A,,Overcast,0,2014-02-25 15:35:00
10:55 AM,30.2,19.4,64,30.20,10.0,Calm,Calm,-,N/A,,Overcast,0,2014-02-25 15:55:00
11:15 AM,30.2,19.4,64,30.19,10.0,Calm,Calm,-,N/A,,Overcast,0,2014-02-25 16:15:00
11:35 AM,32.0,19.4,60,30.19,10.0,West,4.6,-,N/A,,Mostly Cloudy,270,2014-02-25 16:35:00
12:15 PM,32.0,19.4,60,30.19,10.0,WNW,8.1,-,N/A,,Scattered Clouds,290,2014-02-25 17:15:00
12:35 PM,33.8,19.4,56,30.18,10.0,NNW,6.9,-,N/A,,Scattered Clouds,330,2014-02-25 17:35:00
12:55 PM,33.8,19.4,56,30.17,10.0,NNW,6.9,-,N/A,,Scattered Clouds,340,2014-02-25 17:55:00
1:15 PM,33.8,19.4,56,30.16,10.0,North,5.8,-,N/A,,Scattered Clouds,360,2014-02-25 18:15:00
1:35 PM,33.8,19.4,56,30.15,10.0,WNW,3.5,-,N/A,,Scattered Clouds,300,2014-02-25 18:35:00
1:55 PM,33.8,19.4,56,30.15,10.0,North,3.5,-,N/A,,Mostly Cloudy,10,2014-02-25 18:55:00
2:15 PM,35.6,21.2,56,30.13,10.0,NW,8.1,-,N/A,,Mostly Cloudy,320,2014-02-25 19:15:00
2:35 PM,35.6,19.4,52,30.12,10.0,WSW,4.6,-,N/A,,Mostly Cloudy,250,2014-02-25 19:35:00
2:55 PM,37.4,21.2,52,30.11,10.0,West,9.2,19.6,N/A,,Mostly Cloudy,280,2014-02-25 19:55:00
3:15 PM,35.6,19.4,52,30.11,10.0,North,5.8,-,N/A,,Mostly Cloudy,350,2014-02-25 20:15:00
3:35 PM,37.4,21.2,52,30.10,10.0,WNW,8.1,-,N/A,,Scattered Clouds,300,2014-02-25 20:35:00
3:55 PM,33.8,19.4,56,30.10,10.0,NNW,5.8,-,N/A,,Scattered Clouds,330,2014-02-25 20:55:00
4:10 PM,35.6,19.4,52,30.09,10.0,Calm,Calm,-,N/A,,Scattered Clouds,0,2014-02-25 21:10:00
4:35 PM,35.6,19.4,52,30.08,10.0,NW,8.1,-,N/A,,Scattered Clouds,320,2014-02-25 21:35:00
4:55 PM,35.6,19.4,52,30.09,10.0,NW,8.1,-,N/A,,Mostly Cloudy,320,2014-02-25 21:55:00
5:15 PM,35.6,19.4,52,30.09,10.0,North,8.1,-,N/A,,Overcast,350,2014-02-25 22:15:00
5:35 PM,33.8,19.4,56,30.09,10.0,NNW,6.9,-,N/A,,Mostly Cloudy,340,2014-02-25 22:35:00
5:55 PM,33.8,19.4,56,30.09,10.0,NW,8.1,-,N/A,,Mostly Cloudy,320,2014-02-25 22:55:00
6:15 PM,33.8,19.4,56,30.10,10.0,NW,5.8,-,N/A,,Overcast,310,2014-02-25 23:15:00
6:35 PM,33.8,19.4,56,30.10,10.0,NNW,6.9,-,N/A,,Overcast,330,2014-02-25 23:35:00
6:55 PM,32.0,19.4,60,30.09,10.0,NW,6.9,-,N/A,,Overcast,320,2014-02-25 23:55:00
7:15 PM,32.0,19.4,60,30.09,10.0,NNW,8.1,-,N/A,,Scattered Clouds,330,2014-02-26 00:15:00
7:35 PM,32.0,19.4,60,30.09,10.0,NNW,4.6,-,N/A,,Scattered Clouds,340,2014-02-26 00:35:00
7:55 PM,32.0,19.4,60,30.09,10.0,NNW,4.6,-,N/A,,Scattered Clouds,330,2014-02-26 00:55:00
8:15 PM,32.0,19.4,60,30.09,10.0,NNW,3.5,-,N/A,,Overcast,330,2014-02-26 01:15:00
8:35 PM,32.0,19.4,60,30.09,10.0,Calm,Calm,-,N/A,,Overcast,0,2014-02-26 01:35:00
8:55 PM,32.0,19.4,60,30.09,10.0,Calm,Calm,-,N/A,,Overcast,0,2014-02-26 01:55:00
9:15 PM,32.0,19.4,60,30.09,10.0,NNW,3.5,-,N/A,,Overcast,330,2014-02-26 02:15:00
9:35 PM,32.0,19.4,60,30.09,10.0,NW,4.6,-,N/A,,Overcast,320,2014-02-26 02:35:00
9:55 PM,32.0,19.4,60,30.09,10.0,NNW,5.8,-,N/A,,Overcast,330,2014-02-26 02:55:00
10:15 PM,32.0,19.4,60,30.08,10.0,NNW,6.9,-,N/A,,Overcast,330,2014-02-26 03:15:00
10:35 PM,32.0,19.4,60,30.08,10.0,NNW,5.8,-,N/A,,Overcast,330,2014-02-26 03:35:00
10:50 PM,32.0,21.2,64,30.08,10.0,NNW,4.6,-,N/A,,Overcast,340,2014-02-26 03:50:00
11:15 PM,32.0,19.4,60,30.07,10.0,NW,5.8,-,N/A,,Overcast,320,2014-02-26 04:15:00
11:35 PM,30.2,21.2,69,30.07,10.0,North,6.9,-,N/A,,Overcast,360,2014-02-26 04:35:00
11:55 PM,30.2,21.2,69,30.07,10.0,North,8.1,-,N/A,,Overcast,350,2014-02-26 04:55:00